Time,TemperatureF,DewpointF,PressureIn,WindDirection,WindDirectionDegrees,WindSpeedMPH,WindSpeedGustMPH,Humidity,HourlyPrecipIn,Conditions,Clouds,dailyrainin,SoftwareType,DateUTC
2013-09-04 00:11:00,65.8,65.0,29.83,West,274,3.0,3.0,97,0.01,,,0.03,weatherlink.com 1.10,2013-09-04 04:11:00,
2013-09-04 00:26:00,65.7,65.0,29.83,NNW,341,2.0,6.0,96,0.00,,,0.03,weatherlink.com 1.10,2013-09-04 04:26:00,
2013-09-04 00:41:00,65.8,64.0,29.84,West,266,1.0,5.0,94,0.00,,,0.03,weatherlink.com 1.10,2013-09-04 04:41:00,
2013-09-04 00:56:00,65.7,63.0,29.84,NW,309,1.0,7.0,92,0.00,,,0.03,weatherlink.com 1.10,2013-09-04 04:56:00,
2013-09-04 01:11:00,65.5,63.0,29.84,NW,309,2.0,5.0,91,0.00,,,0.03,weatherlink.com 1.10,2013-09-04 05:11:00,
2013-09-04 01:26:00,65.1,63.0,29.84,WNW,303,1.0,2.0,92,0.00,,,0.03,weatherlink.com 1.10,2013-09-04 05:26:00,
2013-09-04 01:41:00,64.4,62.0,29.84,WNW,303,0.0,1.0,92,0.00,,,0.03,weatherlink.com 1.10,2013-09-04 05:41:00,
2013-09-04 01:56:00,63.3,61.0,29.84,WNW,303,1.0,1.0,93,0.00,,,0.03,weatherlink.com 1.10,2013-09-04 05:56:00,
2013-09-04 02:11:00,62.8,61.0,29.84,WNW,303,1.0,1.0,94,0.00,,,0.03,weatherlink.com 1.10,2013-09-04 06:11:00,
2013-09-04 02:26:00,63.0,61.0,29.85,WNW,291,1.0,4.0,94,0.00,,,0.03,weatherlink.com 1.10,2013-09-04 06:26:00,
2013-09-04 02:41:00,63.3,61.0,29.85,NW,314,2.0,4.0,92,0.00,,,0.03,weatherlink.com 1.10,2013-09-04 06:41:00,
2013-09-04 02:56:00,63.3,61.0,29.85,NW,319,0.0,3.0,91,0.00,,,0.03,weatherlink.com 1.10,2013-09-04 06:56:00,
2013-09-04 03:11:00,63.0,61.0,29.84,NW,304,0.0,3.0,92,0.00,,,0.03,weatherlink.com 1.10,2013-09-04 07:11:00,
2013-09-04 03:26:00,62.9,60.0,29.85,West,275,1.0,3.0,91,0.00,,,0.03,weatherlink.com 1.10,2013-09-04 07:26:00,
2013-09-04 03:41:00,63.1,60.0,29.85,WNW,285,4.0,5.0,90,0.00,,,0.03,weatherlink.com 1.10,2013-09-04 07:41:00,
2013-09-04 03:56:00,63.4,60.0,29.85,NW,311,1.0,6.0,88,0.00,,,0.00,weatherlink.com 1.10,2013-09-04 07:56:00,
2013-09-04 04:11:00,63.7,60.0,29.86,WNW,300,3.0,9.0,87,0.00,,,0.00,weatherlink.com 1.10,2013-09-04 08:11:00,
2013-09-04 04:26:00,63.8,60.0,29.86,NW,317,1.0,7.0,87,0.00,,,0.00,weatherlink.com 1.10,2013-09-04 08:26:00,
2013-09-04 04:41:00,63.6,60.0,29.86,WNW,293,2.0,7.0,88,0.00,,,0.00,weatherlink.com 1.10,2013-09-04 08:41:00,
2013-09-04 04:56:00,63.3,60.0,29.87,WNW,297,0.0,5.0,88,0.00,,,0.00,weatherlink.com 1.10,2013-09-04 08:56:00,
2013-09-04 05:11:00,63.3,60.0,29.87,NW,311,3.0,5.0,89,0.00,,,0.00,weatherlink.com 1.10,2013-09-04 09:11:00,
2013-09-04 05:26:00,63.3,60.0,29.88,NW,304,2.0,4.0,89,0.00,,,0.00,weatherlink.com 1.10,2013-09-04 09:26:00,
2013-09-04 05:41:00,63.3,60.0,29.88,WNW,289,2.0,6.0,88,0.00,,,0.00,weatherlink.com 1.10,2013-09-04 09:41:00,
2013-09-04 05:56:00,63.3,60.0,29.88,WNW,291,1.0,5.0,89,0.00,,,0.00,weatherlink.com 1.10,2013-09-04 09:56:00,
2013-09-04 06:11:00,63.3,60.0,29.88,West,281,0.0,7.0,88,0.00,,,0.00,weatherlink.com 1.10,2013-09-04 10:11:00,
2013-09-04 06:26:00,63.3,60.0,29.89,WNW,295,0.0,4.0,88,0.00,,,0.00,weatherlink.com 1.10,2013-09-04 10:26:00,
2013-09-04 06:41:00,63.2,60.0,29.89,NW,317,0.0,4.0,89,0.00,,,0.00,weatherlink.com 1.10,2013-09-04 10:41:00,
2013-09-04 06:56:00,63.1,60.0,29.89,WNW,302,0.0,5.0,89,0.00,,,0.00,weatherlink.com 1.10,2013-09-04 10:56:00,
2013-09-04 07:11:00,63.2,60.0,29.90,NW,326,0.0,3.0,89,0.00,,,0.00,weatherlink.com 1.10,2013-09-04 11:11:00,
2013-09-04 07:26:00,63.2,60.0,29.91,NW,324,1.0,4.0,89,0.00,,,0.00,weatherlink.com 1.10,2013-09-04 11:26:00,
2013-09-04 07:41:00,63.4,60.0,29.91,WNW,302,2.0,5.0,89,0.00,,,0.00,weatherlink.com 1.10,2013-09-04 11:41:00,
2013-09-04 07:56:00,63.6,60.0,29.91,WNW,294,2.0,5.0,89,0.00,,,0.00,weatherlink.com 1.10,2013-09-04 11:56:00,
2013-09-04 08:11:00,64.9,61.0,29.92,NW,307,2.0,7.0,88,0.00,,,0.00,weatherlink.com 1.10,2013-09-04 12:11:00,
2013-09-04 08:26:00,66.6,62.0,29.93,WNW,288,1.0,9.0,86,0.00,,,0.00,weatherlink.com 1.10,2013-09-04 12:26:00,
2013-09-04 08:41:00,67.5,63.0,29.93,WNW,293,2.0,7.0,84,0.00,,,0.00,weatherlink.com 1.10,2013-09-04 12:41:00,
2013-09-04 08:57:00,68.1,62.0,29.93,West,268,7.0,7.0,81,0.00,,,0.00,weatherlink.com 1.10,2013-09-04 12:57:00,
2013-09-04 09:12:00,69.2,64.0,29.93,West,270,3.0,5.0,82,0.00,,,0.00,weatherlink.com 1.10,2013-09-04 13:12:00,
2013-09-04 09:27:00,69.3,63.0,29.93,NW,306,2.0,9.0,81,0.00,,,0.00,weatherlink.com 1.10,2013-09-04 13:27:00,
2013-09-04 09:42:00,69.0,63.0,29.93,NW,320,4.0,10.0,81,0.00,,,0.00,weatherlink.com 1.10,2013-09-04 13:42:00,
2013-09-04 09:57:00,69.9,64.0,29.93,NW,314,5.0,8.0,80,0.00,,,0.00,weatherlink.com 1.10,2013-09-04 13:57:00,
2013-09-04 10:12:00,69.7,63.0,29.93,WSW,252,3.0,9.0,80,0.00,,,0.00,weatherlink.com 1.10,2013-09-04 14:12:00,
2013-09-04 10:27:00,70.3,63.0,29.93,WNW,292,5.0,9.0,77,0.00,,,0.00,weatherlink.com 1.10,2013-09-04 14:27:00,
2013-09-04 10:42:00,70.8,63.0,29.93,WSW,252,7.0,7.0,77,0.00,,,0.00,weatherlink.com 1.10,2013-09-04 14:42:00,
2013-09-04 10:57:00,70.8,63.0,29.93,WNW,282,4.0,9.0,76,0.00,,,0.00,weatherlink.com 1.10,2013-09-04 14:57:00,
2013-09-04 11:12:00,71.5,64.0,29.93,WSW,253,6.0,10.0,76,0.00,,,0.00,weatherlink.com 1.10,2013-09-04 15:12:00,
2013-09-04 11:27:00,71.5,63.0,29.93,WSW,240,2.0,9.0,74,0.00,,,0.00,weatherlink.com 1.10,2013-09-04 15:27:00,
2013-09-04 11:42:00,72.1,64.0,29.92,WNW,288,3.0,10.0,76,0.00,,,0.00,weatherlink.com 1.10,2013-09-04 15:42:00,
2013-09-04 11:57:00,72.5,64.0,29.92,NNW,338,3.0,8.0,74,0.00,,,0.00,weatherlink.com 1.10,2013-09-04 15:57:00,
2013-09-04 12:12:00,73.1,64.0,29.92,West,281,6.0,8.0,73,0.00,,,0.00,weatherlink.com 1.10,2013-09-04 16:12:00,
2013-09-04 12:27:00,72.5,63.0,29.92,West,276,3.0,11.0,72,0.00,,,0.00,weatherlink.com 1.10,2013-09-04 16:27:00,
2013-09-04 12:42:00,73.5,64.0,29.93,NW,305,4.0,12.0,72,0.00,,,0.00,weatherlink.com 1.10,2013-09-04 16:42:00,
2013-09-04 12:57:00,73.7,64.0,29.93,WNW,285,3.0,9.0,72,0.00,,,0.00,weatherlink.com 1.10,2013-09-04 16:57:00,
2013-09-04 13:12:00,73.8,64.0,29.92,WNW,301,3.0,9.0,72,0.00,,,0.00,weatherlink.com 1.10,2013-09-04 17:12:00,
2013-09-04 13:27:00,74.5,65.0,29.92,WNW,286,4.0,7.0,71,0.00,,,0.00,weatherlink.com 1.10,2013-09-04 17:27:00,
2013-09-04 13:42:00,75.5,64.0,29.92,SSW,193,1.0,12.0,67,0.00,,,0.00,weatherlink.com 1.10,2013-09-04 17:42:00,
2013-09-04 13:57:00,74.6,63.0,29.92,WNW,300,2.0,10.0,68,0.00,,,0.00,weatherlink.com 1.10,2013-09-04 17:57:00,
2013-09-04 14:12:00,75.3,64.0,29.92,WSW,252,6.0,8.0,69,0.00,,,0.00,weatherlink.com 1.10,2013-09-04 18:12:00,
2013-09-04 14:27:00,74.5,64.0,29.91,SSW,198,2.0,12.0,69,0.00,,,0.00,weatherlink.com 1.10,2013-09-04 18:27:00,
2013-09-04 14:42:00,74.6,64.0,29.92,West,278,3.0,11.0,69,0.00,,,0.00,weatherlink.com 1.10,2013-09-04 18:42:00,
2013-09-04 14:57:00,74.3,63.0,29.92,WSW,255,8.0,13.0,69,0.00,,,0.00,weatherlink.com 1.10,2013-09-04 18:57:00,
2013-09-04 15:12:00,74.8,64.0,29.92,West,278,2.0,11.0,68,0.00,,,0.00,weatherlink.com 1.10,2013-09-04 19:12:00,
2013-09-04 15:27:00,74.0,64.0,29.92,WNW,293,2.0,14.0,70,0.00,,,0.00,weatherlink.com 1.10,2013-09-04 19:27:00,
2013-09-04 15:42:00,73.9,64.0,29.92,WNW,293,5.0,13.0,71,0.00,,,0.00,weatherlink.com 1.10,2013-09-04 19:42:00,
2013-09-04 15:57:00,73.2,63.0,29.92,SW,219,5.0,19.0,71,0.00,,,0.00,weatherlink.com 1.10,2013-09-04 19:57:00,
2013-09-04 16:13:00,73.4,63.0,29.91,West,262,8.0,16.0,70,0.00,,,0.00,weatherlink.com 1.10,2013-09-04 20:13:00,
2013-09-04 16:27:00,73.5,63.0,29.91,SSW,211,2.0,13.0,70,0.00,,,0.00,weatherlink.com 1.10,2013-09-04 20:27:00,
2013-09-04 16:42:00,73.0,63.0,29.91,SW,226,2.0,16.0,72,0.00,,,0.00,weatherlink.com 1.10,2013-09-04 20:42:00,
2013-09-04 16:57:00,72.6,63.0,29.91,SW,218,3.0,16.0,73,0.00,,,0.00,weatherlink.com 1.10,2013-09-04 20:57:00,
2013-09-04 17:12:00,72.6,64.0,29.91,WSW,256,0.0,10.0,74,0.00,,,0.00,weatherlink.com 1.10,2013-09-04 21:12:00,
2013-09-04 17:28:00,72.3,64.0,29.91,West,270,3.0,11.0,74,0.00,,,0.00,weatherlink.com 1.10,2013-09-04 21:28:00,
2013-09-04 17:43:00,72.1,63.0,29.92,WSW,243,1.0,13.0,74,0.00,,,0.00,weatherlink.com 1.10,2013-09-04 21:43:00,
2013-09-04 17:59:00,71.8,64.0,29.92,WNW,284,0.0,11.0,75,0.00,,,0.00,weatherlink.com 1.10,2013-09-04 21:59:00,
2013-09-04 18:13:00,71.3,62.0,29.91,WSW,238,2.0,13.0,73,0.00,,,0.00,weatherlink.com 1.10,2013-09-04 22:13:00,
2013-09-04 18:28:00,71.1,61.0,29.91,SE,126,1.0,7.0,71,0.00,,,0.00,weatherlink.com 1.10,2013-09-04 22:28:00,
2013-09-04 18:43:00,70.5,61.0,29.91,SSE,152,2.0,5.0,72,0.00,,,0.00,weatherlink.com 1.10,2013-09-04 22:43:00,
2013-09-04 18:58:00,69.2,61.0,29.91,North,355,2.0,8.0,76,0.00,,,0.00,weatherlink.com 1.10,2013-09-04 22:58:00,
2013-09-04 19:13:00,68.6,62.0,29.91,WSW,257,3.0,8.0,79,0.00,,,0.00,weatherlink.com 1.10,2013-09-04 23:13:00,
2013-09-04 19:28:00,68.6,62.0,29.92,WSW,249,3.0,11.0,79,0.00,,,0.00,weatherlink.com 1.10,2013-09-04 23:28:00,
2013-09-04 19:43:00,68.7,62.0,29.92,West,264,2.0,9.0,78,0.00,,,0.00,weatherlink.com 1.10,2013-09-04 23:43:00,
2013-09-04 19:58:00,68.9,62.0,29.93,South,186,0.0,10.0,78,0.00,,,0.00,weatherlink.com 1.10,2013-09-04 23:58:00,
2013-09-04 20:13:00,68.9,62.0,29.93,ESE,109,2.0,12.0,79,0.00,,,0.00,weatherlink.com 1.10,2013-09-05 00:13:00,
2013-09-04 20:28:00,68.6,62.0,29.94,West,266,0.0,12.0,80,0.00,,,0.00,weatherlink.com 1.10,2013-09-05 00:28:00,
2013-09-04 20:43:00,68.3,62.0,29.94,WSW,250,1.0,5.0,80,0.00,,,0.00,weatherlink.com 1.10,2013-09-05 00:43:00,
2013-09-04 20:58:00,68.2,61.0,29.95,East,99,0.0,5.0,79,0.00,,,0.00,weatherlink.com 1.10,2013-09-05 00:58:00,
2013-09-04 21:13:00,68.0,62.0,29.95,WNW,289,2.0,6.0,81,0.00,,,0.00,weatherlink.com 1.10,2013-09-05 01:13:00,
2013-09-04 21:28:00,67.5,62.0,29.95,West,274,1.0,3.0,83,0.00,,,0.00,weatherlink.com 1.10,2013-09-05 01:28:00,
2013-09-04 21:43:00,68.0,62.0,29.95,WNW,285,0.0,5.0,81,0.00,,,0.00,weatherlink.com 1.10,2013-09-05 01:43:00,
2013-09-04 21:58:00,68.2,62.0,29.96,West,276,0.0,7.0,81,0.00,,,0.00,weatherlink.com 1.10,2013-09-05 01:58:00,
2013-09-04 22:13:00,67.7,62.0,29.96,WSW,247,0.0,3.0,83,0.00,,,0.00,weatherlink.com 1.10,2013-09-05 02:13:00,
2013-09-04 22:28:00,67.0,62.0,29.96,West,263,0.0,3.0,84,0.00,,,0.00,weatherlink.com 1.10,2013-09-05 02:28:00,
2013-09-04 22:43:00,66.6,62.0,29.96,West,269,0.0,3.0,86,0.00,,,0.00,weatherlink.com 1.10,2013-09-05 02:43:00,
2013-09-04 22:58:00,66.1,62.0,29.96,West,279,0.0,2.0,87,0.00,,,0.00,weatherlink.com 1.10,2013-09-05 02:58:00,
2013-09-04 23:13:00,65.4,62.0,29.96,WNW,295,0.0,2.0,88,0.00,,,0.00,weatherlink.com 1.10,2013-09-05 03:13:00,
2013-09-04 23:28:00,64.7,62.0,29.96,WNW,283,0.0,3.0,89,0.00,,,0.00,weatherlink.com 1.10,2013-09-05 03:28:00,
2013-09-04 23:43:00,65.2,62.0,29.96,West,264,0.0,4.0,89,0.00,,,0.00,weatherlink.com 1.10,2013-09-05 03:43:00,
2013-09-04 23:58:00,66.5,63.0,29.96,WNW,296,2.0,4.0,88,0.00,,,0.00,weatherlink.com 1.10,2013-09-05 03:58:00,